Date String (YYYY-MM-DD hh:mm:ss) UTC,Instrument flags,absolute air pressure of the measurement (hPa),sample flow rate (lpm),inlet stack bypass flow (lpm),air temperature of the measurement (°C),ambient temperature measured by the external sensor (°C),aerosol sample conditioner tube jacket temperature (°C),OPC LED temperature (°C),internal box temperature (°C),relative humidity of the measurement (%),span deviation,mass concentration of particles derived from Lorenz-Mie calculation of OPC scattering (μg/m³),mass concentration of particles derived from Lorenz-Mie calculation of OPC scattering (μg/m³),mass concentration of particles derived from Lorenz-Mie calculation of OPC scattering (μg/m³)
DateTimeUTC,F1_M11,P_M11,Q1_M11,Q2_M11,T1_M11,T2_M11,T3_M11,T4_M11,T5_M11,U1_M11,ZSPAN_M11,X0_M11,X2_M11,X1_M11
2023-09-14 13:00:00,SystemResetWarning,0831.9,5.00,000.00,028.9,027.4,000.0,037.3,030.4,19.1,0000.0,0008.41,0004.29,0003.95
2023-09-14 13:01:00,SystemResetWarning,0831.9,5.01,000.00,028.9,027.4,000.0,037.3,030.5,18.8,0000.0,0008.36,0004.30,0003.96
2023-09-14 13:02:00,SystemResetWarning,0831.9,5.00,000.00,028.9,027.4,000.0,037.3,030.5,18.7,0000.0,0008.38,0004.31,0003.97
2023-09-14 13:03:00,SystemResetWarning,0832.0,5.00,000.00,028.9,027.4,000.0,037.3,030.5,18.9,0000.0,0007.90,0004.34,0003.98
2023-09-14 13:04:00,SystemResetWarning,0832.0,5.00,000.00,028.9,027.4,000.0,037.3,030.5,19.0,0000.0,0007.68,0004.37,0004.00
2023-09-14 13:05:00,SystemResetWarning,0831.9,5.00,000.00,028.9,027.4,000.0,037.3,030.5,18.7,0000.0,0007.66,0004.38,0004.00
2023-09-14 13:06:00,SystemResetWarning,0832.0,4.99,000.00,028.9,027.4,000.0,037.3,030.5,18.9,0000.0,0007.54,0004.36,0004.01
2023-09-14 13:07:00,SystemResetWarning,0832.0,5.00,000.00,028.9,027.4,000.0,037.3,030.5,19.0,0000.0,0007.40,0004.33,0004.01
2023-09-14 13:08:00,SystemResetWarning,0832.0,5.00,000.00,028.9,027.4,000.0,037.3,030.5,18.7,0000.0,0007.18,0004.32,0004.01
2023-09-14 13:09:00,SystemResetWarning,0832.0,5.01,000.00,028.9,027.4,000.0,037.3,030.5,18.8,0000.0,0007.34,0004.33,0004.01
2023-09-14 13:10:00,SystemResetWarning,0832.0,5.00,000.00,028.9,027.4,000.0,037.3,030.5,18.9,0000.0,0007.65,0004.33,0004.01
2023-09-14 13:11:00,SystemResetWarning,0832.0,5.00,000.00,028.9,027.4,000.0,037.3,030.5,18.8,0000.0,0007.68,0004.34,0004.01
2023-09-14 13:12:00,SystemResetWarning,0832.0,5.00,000.00,028.9,027.4,000.0,037.3,030.5,18.7,0000.0,0007.69,0004.35,0004.01
2023-09-14 13:13:00,SystemResetWarning,0832.0,5.01,000.00,029.0,027.4,000.0,037.3,030.5,18.7,0000.0,0007.68,0004.36,0004.02
2023-09-14 13:14:00,SystemResetWarning,0832.1,5.00,000.00,029.0,027.4,000.0,037.3,030.5,18.7,0000.0,0007.60,0004.33,0004.02
2023-09-14 13:15:00,SystemResetWarning,0832.1,5.00,000.00,029.0,027.4,000.0,037.3,030.5,18.6,0000.0,0007.44,0004.30,0004.01
2023-09-14 13:16:00,SystemResetWarning,0832.1,4.99,000.00,029.0,027.4,000.0,037.3,030.5,18.8,0000.0,0007.46,0004.30,0004.01
2023-09-14 13:17:00,SystemResetWarning,0832.1,4.99,000.00,029.0,027.5,000.0,037.3,030.5,18.7,0000.0,0007.46,0004.29,0004.00
2023-09-14 13:18:00,SystemResetWarning,0832.2,5.00,000.00,029.0,027.5,000.0,037.3,030.5,18.8,0000.0,0007.51,0004.29,0003.99
2023-09-14 13:19:00,SystemResetWarning,0832.2,5.00,000.00,029.0,027.5,000.0,037.3,030.5,18.8,0000.0,0007.65,0004.32,0004.00
2023-09-14 13:20:00,SystemResetWarning,0832.2,5.00,000.00,029.0,027.5,000.0,037.3,030.5,19.0,0000.0,0007.50,0004.33,0004.01
2023-09-14 13:21:00,SystemResetWarning,0832.2,5.00,000.00,029.0,027.5,000.0,037.3,030.5,19.0,0000.0,0007.30,0004.35,0004.01
2023-09-14 13:22:00,SystemResetWarning,0832.2,5.00,000.00,029.0,027.5,000.0,037.3,030.6,19.1,0000.0,0007.30,0004.35,0004.02
2023-09-14 13:23:00,SystemResetWarning,0832.2,5.00,000.00,029.0,027.5,000.0,037.3,030.6,19.1,0000.0,0007.27,0004.33,0004.01
2023-09-14 13:24:00,SystemResetWarning,0832.2,5.00,000.00,029.0,027.5,000.0,037.3,030.6,19.3,0000.0,0007.20,0004.31,0004.01
2023-09-14 13:25:00,SystemResetWarning,0832.2,5.00,000.00,029.0,027.5,000.0,037.3,030.6,20.2,0000.0,0007.72,0004.33,0004.00
2023-09-14 13:26:00,SystemResetWarning,0832.2,5.00,000.00,029.0,027.5,000.0,037.3,030.6,19.9,0000.0,0007.94,0004.39,0004.01
2023-09-14 13:27:00,SystemResetWarning,0832.2,5.01,000.00,029.0,027.5,000.0,037.3,030.6,19.5,0000.0,0008.00,0004.40,0004.01
2023-09-14 13:28:00,SystemResetWarning,0832.3,5.00,000.00,029.0,027.5,000.0,037.4,030.6,19.4,0000.0,0008.01,0004.42,0004.01
2023-09-14 13:29:00,SystemResetWarning,0832.3,4.99,000.00,029.0,027.5,000.0,037.4,030.6,19.6,0000.0,0008.01,0004.43,0004.02
2023-09-14 13:30:00,SystemResetWarning,0832.3,5.00,000.00,029.0,027.5,000.0,037.4,030.6,19.5,0000.0,0007.93,0004.41,0004.01
2023-09-14 13:31:00,SystemResetWarning,0832.3,5.00,000.00,029.0,027.5,000.0,037.4,030.6,19.4,0000.0,0007.86,0004.39,0004.01
2023-09-14 13:32:00,SystemResetWarning,0832.3,5.00,000.00,029.0,027.6,000.0,037.4,030.6,19.1,0000.0,0007.78,0004.38,0004.02
2023-09-14 13:33:00,SystemResetWarning,0832.3,5.00,000.00,029.0,027.6,000.0,037.4,030.6,19.4,0000.0,0007.78,0004.38,0004.03
2023-09-14 13:34:00,SystemResetWarning,0832.3,5.00,000.00,029.0,027.6,000.0,037.4,030.6,19.3,0000.0,0007.78,0004.38,0004.04
2023-09-14 13:35:00,SystemResetWarning,0832.3,5.00,000.00,029.0,027.6,000.0,037.4,030.7,19.2,0000.0,0007.81,0004.39,0004.04
2023-09-14 13:36:00,SystemResetWarning,0832.3,5.01,000.00,029.1,027.6,000.0,037.4,030.7,19.4,0000.0,0007.31,0004.36,0004.04
2023-09-14 13:37:00,SystemResetWarning,0832.3,5.01,000.00,029.1,027.6,000.0,037.4,030.7,19.8,0000.0,0007.23,0004.33,0004.04
2023-09-14 13:38:00,SystemResetWarning,0832.4,5.00,000.00,029.1,027.6,000.0,037.4,030.7,19.7,0000.0,0007.78,0004.33,0004.05
2023-09-14 13:39:00,SystemResetWarning,0832.4,4.99,000.00,029.1,027.6,000.0,037.4,030.7,19.8,0000.0,0007.85,0004.35,0004.06
2023-09-14 13:40:00,SystemResetWarning,0832.5,5.00,000.00,029.1,027.6,000.0,037.4,030.7,19.6,0000.0,0007.79,0004.33,0004.06
2023-09-14 13:41:00,SystemResetWarning,0832.5,5.00,000.00,029.1,027.6,000.0,037.4,030.7,19.8,0000.0,0007.82,0004.33,0004.06
2023-09-14 13:42:00,SystemResetWarning,0832.5,4.99,000.00,029.1,027.6,000.0,037.4,030.7,20.9,0000.0,0007.81,0004.35,0004.06
2023-09-14 13:43:00,SystemResetWarning,0832.5,5.01,000.00,029.1,027.7,000.0,037.4,030.7,20.0,0000.0,0007.78,0004.34,0004.05
2023-09-14 13:44:00,SystemResetWarning,0832.5,5.01,000.00,029.1,027.7,000.0,037.4,030.8,21.3,0000.0,0007.74,0004.33,0004.04
2023-09-14 13:45:00,SystemResetWarning,0832.6,5.00,000.00,029.1,027.7,000.0,037.4,030.8,21.3,0000.0,0007.81,0004.35,0004.05
2023-09-14 13:46:00,SystemResetWarning,0832.6,5.00,000.00,029.1,027.7,000.0,037.4,030.8,21.8,0000.0,0007.95,0004.37,0004.05
2023-09-14 13:47:00,SystemResetWarning,0832.5,5.00,000.00,029.1,027.7,000.0,037.4,030.8,23.2,0000.0,0008.00,0004.39,0004.05
2023-09-14 13:48:00,SystemResetWarning,0832.5,4.99,000.00,029.2,027.7,000.0,037.5,030.8,22.6,0000.0,0007.99,0004.40,0004.05
2023-09-14 13:49:00,SystemResetWarning,0832.5,5.00,000.00,029.2,027.7,000.0,037.5,030.8,21.9,0000.0,0007.36,0004.40,0004.06
2023-09-14 13:50:00,SystemResetWarning,0832.5,5.00,000.00,029.2,027.7,000.0,037.5,030.8,21.0,0000.0,0007.30,0004.39,0004.06
2023-09-14 13:51:00,SystemResetWarning,0832.5,5.00,000.00,029.2,027.7,000.0,037.5,030.8,20.6,0000.0,0007.32,0004.39,0004.06
2023-09-14 13:52:00,SystemResetWarning,0832.5,5.00,000.00,029.2,027.8,000.0,037.5,030.8,20.0,0000.0,0007.27,0004.39,0004.06
2023-09-14 13:53:00,SystemResetWarning,0832.5,5.01,000.00,029.2,027.8,000.0,037.5,030.8,19.3,0000.0,0007.28,0004.38,0004.06
2023-09-14 13:54:00,SystemResetWarning,0832.5,5.00,000.00,029.2,027.6,000.0,037.5,030.8,19.1,0000.0,0007.32,0004.39,0004.07
2023-09-14 13:55:00,SystemResetWarning,0832.5,4.99,000.00,029.1,026.0,000.0,037.4,030.3,19.1,0000.0,0007.38,0004.40,0004.07
2023-09-14 13:56:00,SystemResetWarning,0832.6,5.01,000.00,028.9,024.3,000.0,037.3,029.7,19.1,0000.0,0007.28,0004.39,0004.06
2023-09-14 13:57:00,SystemResetWarning,0832.6,5.01,000.00,028.8,024.0,000.0,037.2,029.7,19.1,0000.0,0006.99,0004.36,0004.06
2023-09-14 13:58:00,SystemResetWarning,0832.5,5.00,000.00,028.6,024.3,000.0,037.2,029.6,19.2,0000.0,0007.10,0004.38,0004.07
2023-09-14 13:59:00,SystemResetWarning,0832.5,5.00,000.00,028.6,024.6,000.0,037.2,029.7,19.3,0000.0,0007.30,0004.38,0004.07
